Probability
40 37 34 30 26 23 22 21 20 18 17 17 16 14 12 11 12 13 14 15 16 20 24 25 23 22 23 22 19 17 16 16 14 11 12 11 9 9 12 12 9 7 8
39 37 35 33 28 22 20 21 22 21 19 18 19 18 15 14 14 15 17 18 18 20 23 25 25 26 27 24 21 17 16 16 16 15 15 14 11 10 12 11 8 6 7
38 37 36 35 30 23 21 23 26 24 20 20 22 22 20 18 17 18 21 22 20 19 22 24 26 29 31 28 24 20 18 19 20 19 19 18 15 12 13 12 9 7 7
40 38 36 36 34 29 27 28 30 27 22 22 24 24 23 20 19 21 23 22 21 21 22 23 24 28 29 27 25 22 21 21 21 20 20 21 19 16 16 14 11 10 10
42 39 38 38 39 37 35 33 33 31 26 25 26 27 26 22 19 20 21 21 22 25 27 27 25 25 24 21 19 20 21 20 19 18 19 20 19 18 17 14 13 12 13
42 41 40 41 42 42 40 36 35 34 32 31 30 30 28 22 16 14 17 22 26 29 33 31 27 25 22 17 13 13 14 14 14 15 16 17 18 18 16 13 13 13 13
42 41 41 41 41 42 41 40 38 37 38 37 35 34 32 23 13 8 12 21 28 32 34 34 30 28 26 20 13 10 9 9 10 13 14 15 17 17 15 13 13 14 14
40 39 38 39 40 41 40 40 39 39 41 40 38 37 35 26 14 6 10 21 31 33 34 34 32 30 27 22 17 15 14 11 9 9 12 12 12 13 13 15 14 14 15
36 35 36 38 40 39 37 35 35 37 37 37 37 36 34 27 14 5 8 22 33 35 35 33 29 26 23 18 19 23 24 18 10 7 6 6 6 6 9 13 14 14 15
34 34 35 37 37 35 33 31 30 31 30 30 31 31 30 25 14 4 7 20 32 38 39 34 26 20 15 13 19 28 29 23 14 8 5 4 4 4 6 9 11 13 13
35 35 35 35 33 31 29 28 26 25 25 25 26 26 24 22 16 6 5 15 26 36 40 37 28 17 8 7 13 23 25 21 16 13 11 9 9 9 8 9 11 12 12
36 36 34 32 30 29 28 25 24 23 23 23 23 23 22 22 16 7 3 8 18 28 34 33 25 12 3 2 5 11 13 13 15 16 15 14 13 13 14 14 14 13 14
34 33 32 30 28 28 27 22 21 22 22 22 22 22 23 21 17 10 4 3 8 16 22 21 14 6 2 2 2 3 5 10 15 17 17 16 15 17 19 18 16 15 15
31 31 31 29 27 28 26 21 19 20 20 19 19 20 21 20 17 15 11 6 4 7 11 12 8 5 6 7 6 5 7 12 16 18 18 18 19 21 22 19 17 15 15
31 31 30 28 26 25 23 18 15 15 14 13 13 15 16 15 14 14 13 10 6 5 8 10 11 11 12 13 11 11 13 14 16 17 18 19 21 23 22 19 17 17 16
29 28 26 24 23 21 18 13 10 8 7 6 6 8 9 9 7 7 8 7 5 5 8 12 14 15 15 14 13 15 17 17 17 18 19 19 20 21 20 20 19 19 19
24 23 21 20 19 17 14 11 7 5 3 2 2 3 4 3 2 2 2 1 1 3 8 11 13 14 14 13 13 14 16 18 18 18 18 19 19 19 18 19 19 19 19
16 15 16 16 16 14 13 11 8 6 5 3 2 1 1 0 0 0 0 1 1 4 8 10 11 12 13 13 13 13 14 15 17 17 17 17 18 18 18 18 18 18 19
11 10 11 12 13 12 11 10 8 7 6 5 3 1 1 1 1 1 1 3 4 6 8 9 10 11 12 12 12 12 12 13 14 16 16 16 17 19 19 19 18 18 18
9 8 7 8 9 10 10 9 7 6 6 5 4 3 2 2 3 3 3 4 6 7 7 8 8 9 10 10 11 12 12 11 12 14 15 16 18 19 19 19 19 19 19
7 6 5 6 7 9 9 8 7 6 6 4 3 3 3 3 4 5 6 6 7 7 7 8 8 8 7 7 9 10 9 9 9 10 12 14 16 18 19 19 19 19 19
6 6 5 5 6 8 8 7 6 6 5 4 3 3 3 4 4 6 6 6 6 6 7 8 8 7 5 5 6 6 6 6 5 5 8 10 13 15 18 19 19 17 16
8 7 6 6 6 6 7 7 6 5 4 3 3 3 4 4 4 5 5 4 4 5 6 7 7 5 3 3 3 4 5 5 4 3 5 7 9 11 14 18 18 15 13
9 8 7 6 6 6 6 7 6 5 4 3 3 2 3 4 4 4 4 4 4 4 5 6 5 3 1 1 3 3 4 4 3 3 4 5 7 8 11 15 16 13 11
8 7 6 6 6 6 6 6 6 5 4 2 1 1 2 3 4 5 5 5 4 5 6 5 3 1 0 1 2 2 1 1 1 2 3 4 6 7 8 11 12 11 10
6 5 4 4 5 5 5 5 5 4 2 1 1 1 1 3 5 6 6 6 5 6 6 5 3 1 1 2 2 1 0 0 0 1 3 4 6 6 7 8 9 9 10
Wind_Speed
10 9 9 9 8 8 7 7 7 6 6 6 6 6 6 7 6 6 7 6 7 6 6 6 6 6 4 4 4 5 5 5 5 3 2 2 3 3 3 3 4 4 5
9 9 9 8 7 8 7 7 7 7 7 7 7 6 7 7 6 7 8 7 7 7 7 7 7 6 6 5 4 5 4 4 5 5 3 3 4 4 4 4 3 3 3
8 8 8 8 7 7 7 6 6 7 6 6 6 6 6 6 7 7 7 7 7 7 7 7 7 7 7 5 6 5 5 5 5 5 4 3 3 3 5 4 4 3 4
7 7 7 7 7 7 6 6 6 6 6 6 6 6 6 6 7 7 7 7 7 7 7 7 7 8 7 7 6 6 5 5 5 6 4 4 4 4 4 4 4 4 4
6 6 6 6 6 6 5 5 5 6 6 6 6 6 6 6 6 6 6 7 7 7 7 7 7 6 6 6 5 5 6 5 5 5 5 4 4 4 4 4 4 3 3
6 6 5 5 5 5 5 5 5 6 6 6 6 6 7 5 2 4 6 7 7 7 7 7 7 7 6 7 6 5 6 7 6 6 5 5 5 5 4 4 4 3 3
6 6 6 6 6 5 5 5 5 5 5 5 5 6 6 5 4 6 8 8 8 7 7 6 6 5 7 7 7 7 8 7 7 8 7 6 5 5 5 5 4 4 3
6 6 5 5 5 5 4 4 4 4 4 4 5 5 5 5 5 7 7 9 9 8 7 7 7 6 5 5 6 7 7 7 7 8 7 6 4 3 5 6 5 5 4
5 5 5 5 5 5 5 4 4 4 4 5 5 5 6 5 5 6 7 7 7 8 7 7 7 7 5 5 7 7 7 6 5 5 4 3 2 3 4 4 5 5 5
5 5 5 5 5 5 4 4 4 4 4 5 5 5 5 5 3 5 6 6 6 6 6 6 6 6 5 6 7 7 7 6 5 5 5 5 6 6 6 6 5 5 4
4 4 4 5 5 5 5 4 4 4 4 5 4 5 5 5 4 5 6 6 6 6 5 5 4 6 7 8 8 7 7 6 6 6 6 6 6 6 6 6 5 5 4
3 4 4 4 4 3 4 5 4 5 5 6 5 6 5 5 4 5 5 6 6 6 5 5 3 5 7 8 7 6 5 6 6 5 5 6 6 5 5 5 5 4 3
3 3 3 3 3 3 4 5 5 5 6 5 5 5 5 4 4 7 7 7 7 6 4 3 2 4 6 7 8 7 7 6 5 5 5 5 4 4 4 5 5 4 4
3 3 3 3 4 3 4 4 4 5 5 5 5 5 5 4 4 4 5 5 6 6 5 3 5 7 6 5 5 7 6 5 5 5 5 4 4 4 5 5 5 5 5
3 3 3 4 3 3 4 3 5 4 3 4 5 5 5 6 3 2 3 4 4 2 2 4 4 4 5 5 4 4 4 5 5 4 4 4 4 4 4 5 4 5 5
4 3 3 4 3 4 4 4 2 4 3 4 5 6 5 4 3 3 4 4 5 4 4 5 5 5 5 5 5 4 4 4 4 4 4 4 4 4 5 5 5 6 5
5 4 4 5 5 5 5 5 4 3 5 7 8 7 7 6 5 5 5 5 6 6 6 5 5 5 5 4 4 4 5 5 4 4 4 5 5 5 5 5 6 5 5
6 5 6 5 6 6 6 6 5 5 5 4 5 7 8 8 8 7 7 5 5 6 6 5 5 5 4 4 4 4 4 4 5 5 5 5 5 5 5 6 6 6 5
5 5 5 5 6 6 5 5 5 6 5 4 4 3 5 7 8 8 7 6 6 6 6 5 4 5 4 4 4 4 4 5 5 5 5 6 6 6 5 5 5 5 6
5 5 6 6 6 5 5 5 5 5 5 4 4 4 3 4 4 5 5 5 6 5 5 5 4 4 4 3 4 4 5 4 5 5 5 5 5 5 5 6 5 5 5
5 4 5 6 6 5 5 5 5 5 4 4 4 3 4 5 5 5 5 5 5 5 4 4 4 4 4 4 4 5 6 5 4 4 4 4 4 4 4 4 4 5 5
4 4 5 5 5 5 5 5 5 5 5 5 4 3 5 5 5 4 4 4 4 4 4 4 4 4 4 4 4 5 5 4 4 4 4 4 4 4 4 4 5 5 5
5 5 5 5 4 4 5 5 5 4 4 4 4 3 3 4 4 4 4 4 3 3 4 4 5 5 4 5 5 5 5 4 4 4 4 4 4 4 5 5 7 7 6
4 5 5 4 3 4 4 4 4 4 4 4 3 4 3 3 4 4 4 4 4 4 4 4 5 6 7 6 5 5 4 4 5 5 6 5 5 5 4 5 6 6 6
4 3 3 3 3 3 3 3 3 3 3 3 3 3 3 3 3 3 4 4 4 4 5 5 4 5 7 8 7 4 2 2 3 4 5 6 6 6 5 6 5 6 6
3 3 3 3 3 3 3 3 2 3 3 2 3 3 3 3 3 4 3 4 4 4 5 5 6 6 7 6 6 4 4 4 4 4 6 6 6 6 6 6 7 6 6
Wind_Direction
195 195 199 200 201 206 212 215 216 218 215 221 224 227 230 234 234 234 241 236 234 235 235 230 231 244 243 237 232 234 236 242 250 253 227 177 193 220 189 193 183 189 142
189 190 195 196 200 207 210 212 213 214 215 219 226 227 231 233 233 234 238 238 236 236 234 233 233 225 228 244 241 238 234 236 242 244 238 211 202 204 207 217 206 198 167
182 185 187 193 199 210 216 214 212 214 217 221 227 227 232 235 234 235 239 240 239 239 238 234 232 228 227 230 238 238 232 223 230 239 237 225 213 202 205 214 212 220 203
176 183 185 193 198 207 212 214 216 217 217 221 227 230 233 237 238 238 238 241 242 241 239 237 234 231 229 230 230 232 235 232 225 237 235 217 212 204 216 216 211 207 223
168 174 179 186 193 201 206 211 216 223 222 221 226 227 232 235 235 237 240 238 240 240 239 237 235 234 239 240 244 231 228 232 229 231 230 223 217 206 218 224 224 212 207
169 172 171 178 185 191 203 209 214 222 228 224 225 229 234 240 222 233 247 245 242 241 242 240 234 223 223 226 244 248 243 236 239 240 234 231 226 222 220 229 224 217 210
174 177 176 181 186 191 204 204 211 216 223 224 224 230 238 238 222 226 238 248 245 243 242 240 241 229 217 225 220 226 234 243 248 251 250 246 233 222 223 221 220 230 236
178 179 177 185 189 189 197 203 210 214 221 227 234 237 241 239 221 224 229 239 244 243 238 235 237 237 222 223 224 223 228 228 232 236 247 245 245 238 226 228 220 214 215
182 183 184 187 192 194 200 208 215 221 226 231 231 235 241 239 222 222 229 239 236 237 235 234 234 231 210 213 223 223 226 227 212 216 241 234 228 222 233 229 213 213 213
192 191 190 190 194 199 204 212 217 224 229 236 235 237 242 247 218 215 226 241 236 235 232 230 223 232 207 202 223 223 225 227 219 199 205 206 206 197 208 228 226 223 221
197 190 191 195 197 203 211 217 218 229 238 245 245 241 238 241 219 207 221 245 247 243 236 232 218 197 206 209 226 229 229 229 219 211 204 205 206 204 206 209 230 239 234
208 205 194 208 219 201 208 223 226 231 234 235 235 244 239 226 221 204 208 233 263 255 249 246 223 181 205 214 223 232 222 224 223 216 215 211 206 204 199 202 212 233 244
211 216 208 212 231 227 225 225 222 222 236 243 243 246 247 235 204 188 202 217 230 247 261 282 265 207 211 215 219 220 218 221 219 218 221 221 214 203 195 187 188 203 211
220 222 220 222 228 227 236 235 237 235 240 246 251 255 257 250 240 214 210 209 212 227 244 231 210 213 223 226 209 210 222 226 226 224 222 222 214 198 201 198 196 195 201
236 240 239 242 240 239 241 252 253 261 261 260 270 274 271 267 278 294 253 249 255 254 264 251 242 222 221 219 216 211 215 215 222 231 229 217 212 209 206 201 205 207 209
246 245 253 255 247 247 246 249 231 234 208 217 238 260 277 277 270 264 246 238 234 228 235 237 236 232 228 226 221 211 211 215 222 227 224 222 217 210 208 206 207 213 213
259 261 261 260 256 255 257 257 262 235 212 214 216 220 230 242 247 244 237 235 227 207 225 236 236 235 232 228 226 221 217 211 212 218 219 219 222 216 211 212 212 215 216
262 258 257 257 258 257 257 259 261 263 261 255 229 212 212 217 224 228 227 227 227 215 232 235 236 238 235 228 225 225 223 215 212 215 215 216 217 217 213 215 214 216 218
268 265 266 268 265 264 264 265 265 265 267 270 272 244 205 212 216 223 216 228 238 234 231 232 234 236 233 228 228 227 229 227 221 220 215 214 216 216 214 215 214 196 221
260 257 263 270 268 263 258 259 261 261 264 266 262 262 251 245 244 229 222 235 241 240 236 233 234 239 232 228 230 229 228 226 223 225 219 216 213 215 214 215 218 216 219
275 258 240 257 261 259 256 252 253 255 261 268 268 267 262 260 260 255 244 238 241 241 237 236 231 228 227 223 226 227 229 225 221 226 226 226 222 217 217 217 218 225 227
274 273 267 262 260 256 254 250 250 252 251 254 257 241 227 248 261 259 250 243 241 240 235 232 232 229 228 230 229 230 229 225 222 224 228 229 226 223 220 218 219 222 224
270 270 269 268 264 250 248 251 250 249 247 247 255 257 245 254 257 259 260 255 250 244 236 233 235 231 227 228 230 227 230 231 227 221 225 223 222 221 218 218 221 220 218
278 273 272 272 269 265 262 259 253 249 248 247 250 258 257 253 256 255 255 251 243 238 233 231 232 231 228 229 228 224 222 227 232 223 225 226 224 222 221 221 224 220 216
283 285 284 280 273 268 268 268 265 262 256 249 247 254 257 253 249 248 249 249 247 243 239 237 234 231 229 228 227 222 180 179 227 245 226 226 227 225 224 226 224 220 217
294 298 299 299 291 282 273 269 269 268 268 261 246 243 250 249 245 244 245 246 245 240 237 234 231 232 232 229 218 199 174 179 195 225 240 232 229 227 226 227 225 224 219